Location: B?lite?ti
(46.2833°N, 22.7333°E)
Time: 04:39:55
(UTC+00:00)

Helios 1A Rocket - Pass Details

Date: 24 January 2021
Orbit: 562 x 587 km, 98.3° (Epoch: 26 February)

Event Time Altitude Azimuth Distance (km) Brightness Sun altitude
Rises 17:10:39 0° 161° (SSE) 2,800 6.3 -18.6°
Reaches altitude 10° 17:12:47 10° 161° (SSE) 1,906 5.4 -19.0°
Maximum altitude 17:16:55 80° 74° (ENE) 603 2.8 -19.7°
Drops below altitude 10° 17:21:06 10° 348° (NNW) 1,922 5.6 -20.4°
Sets 17:23:16 0° 348° (NNW) 2,826 6.5 -20.8°
